"Pseudo-MPEC" for P11oS61

Created 2021 Dec 1 19:07:31 UT using Find_Orb

Click here for an explanation of pseudo-MPECs

 
 Astrometry: 
     P11oS61  C2021 11 11MKN'BU@wX`Astrometry/M^Oq0]n:/E1_c807?,G`HxdVNMD2Ss*F51
     P11oS61  C2021 11 11/]gWU[Alredacted;_j/click$wVE/therede7885$Eb./yP@U1aF51
     P11oS61  C2021 11 11/XgM=2]ufor/m:.hrB%d4ni4VQCexplanationV'=19%@qFHhX+cF51
     P11oS61  C2021 11 11gRWPUFQ%geN0y*av:i:%\?-?Hux-8?9JonJryO9eW#dbd;V-U6CNF51

Station data:
(F51) Pan-STARRS 1, Haleakala  (N20.707235 W156.255910)  US/Hawaii.
   Observers N. Primak, A. Schultz, S. Watters, J. Thiel, T. Goggia. Measurer
   PS1 Science Consortium. 1.8-m Ritchey-Chrétien + CCD.

Orbital elements:  P11oS61
   Perihelion 2022 Jan 9.657999 +/- 830.184 TT = 15:47:31 (JD 2459589.157999)
Epoch 2021 Nov 11.0 TT = JDT 2459529.5   Earth MOID: 0.3733   AutoNEOCP
M 346.15608108 +/- 57.532266        (J2000 ecliptic)
n   0.23205469 +/- 0.134411         Peri.  333.00385 +/- 106.77404
a   2.62266291 +/- 1.01272          Node   117.39295 +/- 71.285183
e   0.4873119 +/- 0.232297          Incl.   11.81906 +/- 49.725395
P   4.25                   H 21.6   G  0.15   U 11.5  SR
q 1.34460801 +/- 1.96702    Q 3.90071781 +/- 115.616
From 4 observations 2021 Nov. 11 (55.7 min); mean residual 0".11
Residuals in arcseconds: 
211111 F51  .13+  .10-    211111 F51  .02+  .01-    
211111 F51  .21-  .15+    211111 F51  .06+  .04-    

Ephemerides (geocentric):
Date (UTC) HH   RA              Dec         delta   r     elong  mag " sig PA
---- -- -- --  -------------   -----------  ------ ------ -----  --- ---- ---
2021 12 01 19  03 19 55.457   -11 59 31.13  .48805 1.4027 141.9 21.9 971' 166
2021 12 01 20  03 19 54.641   -11 58 55.12  .48800 1.4026 141.9 21.9 973' 166
2021 12 01 21  03 19 53.827   -11 58 19.02  .48795 1.4025 141.8 21.9 975' 166
2021 12 01 22  03 19 53.017   -11 57 42.83  .48790 1.4023 141.8 21.9 976' 166
2021 12 01 23  03 19 52.209   -11 57 06.55  .48785 1.4022 141.8 21.9 978' 166
2021 12 02 00  03 19 51.404   -11 56 30.19  .48780 1.4021 141.8 21.9 979' 166
2021 12 02 01  03 19 50.602   -11 55 53.74  .48776 1.4020 141.8 21.9 981' 166
2021 12 02 02  03 19 49.802   -11 55 17.20  .48771 1.4019 141.7 21.9 982' 167
2021 12 02 03  03 19 49.005   -11 54 40.57  .48766 1.4017 141.7 21.9 984' 167
2021 12 02 04  03 19 48.211   -11 54 03.85  .48761 1.4016 141.7 21.9 985' 167
2021 12 02 05  03 19 47.420   -11 53 27.05  .48756 1.4015 141.7 21.9 987' 167
2021 12 02 06  03 19 46.631   -11 52 50.16  .48751 1.4014 141.7 21.9 988' 168
2021 12 02 07  03 19 45.845   -11 52 13.18  .48746 1.4013 141.6 21.9 990' 169
2021 12 02 08  03 19 45.062   -11 51 36.11  .48741 1.4012 141.6 21.9 992' 169
2021 12 02 09  03 19 44.282   -11 50 58.96  .48737 1.4010 141.6 21.9 996' 171
2021 12 02 10  03 19 43.505   -11 50 21.72  .48732 1.4009 141.6 21.9  17d 173
2021 12 02 11  03 19 42.730   -11 49 44.39  .48727 1.4008 141.6 21.9  17d 176
2021 12 02 12  03 19 41.959   -11 49 06.97  .48722 1.4007 141.6 21.9  17d 179
2021 12 02 13  03 19 41.190   -11 48 29.46  .48718 1.4006 141.5 21.9  18d   3
2021 12 02 14  03 19 40.424   -11 47 51.87  .48713 1.4004 141.5 21.9  19d   7
2021 12 02 15  03 19 39.661   -11 47 14.19  .48708 1.4003 141.5 21.9  20d   9
2021 12 02 16  03 19 38.900   -11 46 36.42  .48704 1.4002 141.5 21.9  21d  10
2021 12 02 17  03 19 38.143   -11 45 58.57  .48699 1.4001 141.5 21.9  21d  10
2021 12 02 18  03 19 37.389   -11 45 20.63  .48695 1.4000 141.4 21.9  22d  10
2021 12 02 19  03 19 36.637   -11 44 42.60  .48690 1.3999 141.4 21.9  22d  10
2021 12 02 20  03 19 35.888   -11 44 04.48  .48685 1.3997 141.4 21.9  22d  10
2021 12 02 21  03 19 35.143   -11 43 26.27  .48681 1.3996 141.4 21.9  23d  10
2021 12 02 22  03 19 34.400   -11 42 47.98  .48676 1.3995 141.4 21.9  23d   9
2021 12 02 23  03 19 33.660   -11 42 09.60  .48672 1.3994 141.3 21.9  23d   9
2021 12 03 00  03 19 32.923   -11 41 31.14  .48667 1.3993 141.3 21.9  23d   9
2021 12 03 01  03 19 32.189   -11 40 52.58  .48663 1.3992 141.3 21.9  23d   9
2021 12 03 02  03 19 31.458   -11 40 13.94  .48658 1.3990 141.3 21.9  23d   8
2021 12 03 03  03 19 30.730   -11 39 35.21  .48654 1.3989 141.3 21.9  23d   8
2021 12 03 04  03 19 30.005   -11 38 56.40  .48650 1.3988 141.3 21.9  23d   8
2021 12 03 05  03 19 29.283   -11 38 17.49  .48645 1.3987 141.2 21.9  23d   7
2021 12 03 06  03 19 28.564   -11 37 38.50  .48641 1.3986 141.2 21.9  23d   7
2021 12 03 07  03 19 27.847   -11 36 59.43  .48637 1.3985 141.2 21.9  24d   7
2021 12 03 08  03 19 27.134   -11 36 20.26  .48632 1.3983 141.2 21.9  24d   7
2021 12 03 09  03 19 26.424   -11 35 41.01  .48628 1.3982 141.2 21.9  24d   7
2021 12 03 10  03 19 25.717   -11 35 01.67  .48624 1.3981 141.1 21.9  24d   6
2021 12 03 11  03 19 25.013   -11 34 22.25  .48619 1.3980 141.1 21.9  24d   6
2021 12 03 12  03 19 24.312   -11 33 42.74  .48615 1.3979 141.1 21.9  24d   6
2021 12 03 13  03 19 23.615   -11 33 03.14  .48611 1.3978 141.1 21.9  24d   6
2021 12 03 14  03 19 22.920   -11 32 23.45  .48607 1.3976 141.1 21.9  24d   6
2021 12 03 15  03 19 22.228   -11 31 43.68  .48602 1.3975 141.0 21.9  24d   6
2021 12 03 16  03 19 21.539   -11 31 03.82  .48598 1.3974 141.0 21.9  24d   5
2021 12 03 17  03 19 20.854   -11 30 23.87  .48594 1.3973 141.0 21.9  24d   5
2021 12 03 18  03 19 20.171   -11 29 43.84  .48590 1.3972 141.0 21.9  24d   5